GW5055 Weather Reports


time (UTC)temp
F
wind
direction
speed
knots
gust
knots
rain 1hr
in
rain 24hr
in
rain mn
in
humidity
%
barometer
mb
20260510044909 49 213 6.1 8.7 0.00 0.00 0.00 92 1006.8
20260510044406 49 224 1.7 8.7 0.00 0.00 0.00 92 1006.7
20260510043902 49 242 3.5 11.3 0.00 0.00 0.00 93 1006.6
20260510043358 49 218 3.5 12.2 0.00 0.00 0.00 93 1006.5
20260510042857 48 184 6.1 8.7 0.00 0.00 0.00 93 1006.4
20260510042352 48 208 7.0 12.2 0.00 0.00 0.00 93 1006.4
20260510041849 48 217 3.5 9.6 0.00 0.00 0.00 93 1006.3
20260510041346 48 211 9.6 13.9 0.00 0.00 0.00 93 1006.2
20260510040843 48 207 5.2 13.9 0.00 0.00 0.00 94 1006.3
20260510040340 48 193 6.1 13.9 0.00 0.00 0.00 94 1006.2
20260510035835 48 212 4.3 9.6 0.00 0.16 0.16 94 1006.1
20260510035331 48 199 10.4 13.9 0.00 0.16 0.16 94 1006.1
20260510034827 48 211 7.8 13.0 0.00 0.16 0.16 93 1005.9
20260510034325 49 225 7.8 13.0 0.00 0.16 0.16 93 1006.1
20260510033821 49 196 7.0 18.2 0.00 0.16 0.16 93 1006.0
20260510033319 49 206 5.2 13.0 0.00 0.16 0.16 92 1005.8
20260510032815 49 162 5.2 8.7 0.00 0.16 0.16 93 1005.5
20260510032312 49 225 7.0 9.6 0.00 0.16 0.16 93 1005.7
20260510031807 49 209 8.7 12.2 0.00 0.16 0.16 92 1005.4
20260510031303 49 211 5.2 12.2 0.00 0.16 0.16 91 1005.3
20260510030757 49 178 6.1 14.8 0.00 0.16 0.16 91 1005.5
20260510030254 49 215 6.1 14.8 0.00 0.16 0.16 92 1005.3
20260510025751 49 205 5.2 13.0 0.00 0.16 0.16 92 1005.5
20260510025249 50 223 9.6 14.8 0.00 0.16 0.16 92 1005.6
20260510024745 50 209 5.2 14.8 0.00 0.16 0.16 92 1005.5
20260510024242 50 172 4.3 12.2 0.00 0.16 0.16 92 1005.5
20260510023738 50 239 7.8 11.3 0.00 0.16 0.16 91 1005.5
20260510023235 51 218 5.2 8.7 0.00 0.16 0.16 91 1005.6
20260510022732 51 194 7.8 12.2 0.00 0.16 0.16 90 1005.4
20260510022231 51 206 7.8 9.6 0.00 0.16 0.16 91 1005.5
20260510021726 51 223 7.0 9.6 0.00 0.16 0.16 91 1005.3
20260510021224 51 170 3.5 14.8 0.00 0.16 0.16 91 1005.5
20260510020719 51 146 6.1 13.0 0.00 0.16 0.16 91 1005.4
20260510020214 51 166 5.2 12.2 0.00 0.16 0.16 92 1005.3
20260510015710 51 199 4.3 12.2 0.00 0.16 0.16 91 1005.3
20260510015207 51 202 6.1 9.6 0.00 0.16 0.16 92 1005.2
20260510014702 51 224 4.3 8.7 0.00 0.16 0.16 93 1005.3
20260510014200 51 188 7.8 9.6 0.00 0.16 0.16 93 1005.1
20260510013700 51 190 4.3 9.6 0.00 0.16 0.16 94 1005.1
20260510013156 51 154 6.1 14.8 0.00 0.16 0.16 93 1004.9
20260510012655 51 187 6.1 13.0 0.00 0.16 0.16 94 1005.0
20260510012151 51 114 5.2 13.0 0.07 0.16 0.16 93 1005.1
20260510011646 51 169 5.2 7.8 0.12 0.16 0.16 94 1004.9
20260510011142 51 202 6.1 8.7 0.12 0.15 0.15 93 1005.1
20260510010638 51 172 8.7 13.9 0.24 0.14 0.14 95 1005.1
20260510010136 51 168 5.2 9.6 0.31 0.13 0.13 95 1004.9
20260510005631 51 201 5.2 7.8 0.26 0.10 0.10 95 1005.1
20260510005128 51 192 5.2 7.8 0.24 0.08 0.08 94 1005.2
20260510004627 52 248 4.3 9.6 0.35 0.06 0.06 93 1005.3
20260510004124 53 235 7.0 19.1 0.19 0.03 0.03 92 1005.5
20260510003621 54 191 6.1 12.2 0.00 0.00 0.00 85 1004.5
20260510003117 54 159 8.7 9.6 0.00 0.00 0.00 82 1003.7
20260510002612 55 164 7.0 11.3 0.00 0.00 0.00 81 1003.4
20260510002109 55 148 7.8 11.3 0.00 0.00 0.00 80 1003.4
20260510001606 55 160 7.0 8.7 0.00 0.00 0.00 80 1003.3
20260510001105 54 174 7.0 7.8 0.00 0.00 0.00 81 1003.4
20260510000605 54 183 6.1 8.7 0.00 0.00 0.00 80 1003.4
20260509235558 54 192 3.5 7.8 0.00 0.00 0.00 81 1003.3
20260509235055 55 152 4.3 8.7 0.00 0.00 0.00 80 1003.3
20260509234551 55 178 5.2 13.0 0.00 0.00 0.00 79 1003.0
20260509234049 55 164 7.8 9.6 0.00 0.00 0.00 79 1003.1
20260509233547 55 169 6.1 8.7 0.00 0.00 0.00 78 1003.0
20260509233044 56 144 7.0 9.6 0.00 0.00 0.00 77 1003.5
20260509232540 56 171 4.3 9.6 0.00 0.00 0.00 77 1003.2
20260509232037 56 154 7.0 9.6 0.00 0.00 0.00 77 1003.4
20260509231533 56 144 5.2 7.8 0.00 0.00 0.00 77 1003.5
20260509231032 56 158 7.0 7.8 0.00 0.00 0.00 77 1003.6
20260509230528 56 161 3.5 6.1 0.00 0.00 0.00 77 1003.8
20260509230025 56 165 4.3 6.1 0.00 0.00 0.00 77 1004.1
20260509225520 56 145 4.3 7.0 0.00 0.00 0.00 77 1003.9
20260509225016 56 154 4.3 8.7 0.00 0.00 0.00 77 1004.1
20260509224512 56 153 3.5 6.1 0.00 0.00 0.00 77 1004.3
20260509224009 56 148 5.2 7.0 0.00 0.00 0.00 76 1004.1
20260509223505 57 187 4.3 6.1 0.00 0.00 0.00 78 1004.2
20260509223004 57 174 3.5 6.1 0.00 0.00 0.00 77 1004.3
20260509222459 57 159 6.1 7.8 0.00 0.00 0.00 76 1004.3
20260509221955 57 181 4.3 7.0 0.00 0.00 0.00 77 1004.3
20260509221451 56 173 6.1 7.8 0.00 0.00 0.00 77 1004.3
20260509220947 56 143 5.2 7.0 0.00 0.00 0.00 78 1004.2
20260509220443 56 177 4.3 9.6 0.00 0.00 0.00 78 1004.3
20260509215939 56 174 5.2 7.8 0.00 0.00 0.00 78 1004.1
20260509215435 56 154 5.2 9.6 0.00 0.00 0.00 78 1004.4
20260509214932 56 169 6.1 9.6 0.00 0.00 0.00 78 1004.3
20260509214430 56 176 4.3 7.0 0.00 0.00 0.00 79 1004.3
20260509213926 55 134 3.5 3.5 0.00 0.00 0.00 79 1004.3
20260509213422 55 101 3.5 7.0 0.00 0.00 0.00 79 1004.3
20260509212920 55 176 3.5 7.8 0.00 0.00 0.00 79 1004.4
20260509212417 56 191 5.2 7.0 0.00 0.00 0.00 78 1004.3
20260509211913 56 123 4.3 8.7 0.00 0.00 0.00 77 1004.3
20260509211409 56 146 6.1 8.7 0.00 0.00 0.00 76 1004.3
20260509210905 57 96 5.2 7.8 0.00 0.00 0.00 76 1004.2
20260509210403 56 130 6.1 8.7 0.00 0.00 0.00 76 1004.3
20260509205903 57 143 6.1 8.7 0.00 0.00 0.00 75 1004.6
20260509205358 57 121 8.7 11.3 0.00 0.00 0.00 74 1004.4
20260509204855 57 177 6.1 8.7 0.00 0.00 0.00 74 1004.5
20260509204351 58 108 4.3 8.7 0.00 0.00 0.00 73 1004.6
20260509203848 58 91 7.0 11.3 0.00 0.00 0.00 73 1004.7
20260509203344 58 134 7.8 9.6 0.00 0.00 0.00 73 1004.7
20260509202841 58 112 7.0 8.7 0.00 0.00 0.00 73 1004.7
20260509202337 59 135 7.0 11.3 0.00 0.00 0.00 71 1004.8
20260509201837 59 181 7.0 8.7 0.00 0.00 0.00 72 1004.9
20260509201328 59 127 7.8 9.6 0.00 0.00 0.00 70 1005.2
20260509200824 59 132 6.1 7.8 0.00 0.00 0.00 70 1005.2
20260509200320 59 155 7.8 11.3 0.00 0.00 0.00 70 1005.2
20260509195816 59 138 8.7 13.9 0.00 0.00 0.00 70 1005.3
20260509195311 60 162 4.3 9.6 0.00 0.00 0.00 73 1005.2
20260509194811 60 161 5.2 12.2 0.00 0.00 0.00 70 1005.2
20260509194307 59 123 5.2 14.8 0.00 0.00 0.00 71 1005.2
20260509193804 59 102 5.2 11.3 0.00 0.00 0.00 71 1005.3
20260509193304 59 101 4.3 12.2 0.00 0.00 0.00 73 1005.3
20260509192800 61 185 7.8 12.2 0.00 0.00 0.00 68 1005.6
20260509192256 60 203 4.3 9.6 0.00 0.00 0.00 69 1005.6
20260509191751 60 174 7.8 13.0 0.00 0.00 0.00 70 1005.7
20260509191248 60 185 7.8 13.9 0.00 0.00 0.00 69 1005.8
20260509190743 60 146 7.8 13.9 0.00 0.00 0.00 69 1005.9
20260509190241 60 155 9.6 12.2 0.00 0.00 0.00 68 1005.9
20260509185738 61 148 6.1 9.6 0.00 0.00 0.00 71 1006.1
20260509185234 60 137 6.1 13.9 0.00 0.00 0.00 70 1005.9
20260509184732 60 207 7.8 11.3 0.00 0.00 0.00 69 1006.0
20260509184229 60 203 8.7 15.6 0.00 0.00 0.00 69 1006.2
20260509183725 61 74 5.2 13.0 0.00 0.00 0.00 69 1005.9
20260509183221 60 206 9.6 16.5 0.00 0.00 0.00 66 1006.3
20260509182716 59 165 7.8 13.9 0.00 0.00 0.00 70 1006.4
20260509182214 60 178 7.8 9.6 0.00 0.00 0.00 66 1006.2
20260509181711 59 124 3.5 13.9 0.00 0.00 0.00 70 1006.4
20260509181209 58 131 8.7 13.0 0.00 0.00 0.00 68 1006.6
20260509180706 59 164 6.1 14.8 0.00 0.00 0.00 71 1006.6
20260509180202 59 137 6.1 11.3 0.00 0.00 0.00 70 1006.6
20260509175658 58 148 7.0 13.0 0.00 0.00 0.00 72 1006.8
20260509175155 58 150 7.0 12.2 0.00 0.00 0.00 71 1006.5
20260509174651 57 112 6.1 13.9 0.00 0.00 0.00 74 1006.8
20260509174150 57 177 7.0 12.2 0.00 0.00 0.00 71 1006.8
20260509173647 59 186 7.8 11.3 0.00 0.00 0.00 68 1006.8
20260509173143 57 180 7.0 11.3 0.00 0.00 0.00 71 1006.9
20260509172639 56 148 7.8 13.0 0.00 0.00 0.00 73 1006.8
20260509172136 56 154 9.6 13.0 0.00 0.00 0.00 73 1007.0
20260509171631 56 166 7.8 13.9 0.00 0.00 0.00 75 1006.9
20260509171128 55 153 8.7 14.8 0.00 0.00 0.00 73 1006.8
20260509170624 56 149 9.6 14.8 0.00 0.00 0.00 73 1006.8
20260509170121 56 195 5.2 12.2 0.00 0.00 0.00 74 1006.9
20260509165619 56 188 7.0 13.0 0.00 0.00 0.00 74 1006.8
20260509165115 57 133 7.8 12.2 0.00 0.00 0.00 74 1007.0
20260509164611 56 169 7.8 12.2 0.00 0.00 0.00 72 1007.0
20260509164106 56 168 7.8 12.2 0.00 0.00 0.00 73 1007.2
20260509163605 57 162 8.7 13.0 0.00 0.00 0.00 73 1007.4
20260509163100 57 183 7.8 12.2 0.00 0.00 0.00 72 1007.3
20260509162558 56 185 9.6 12.2 0.00 0.00 0.00 72 1007.6
20260509162053 57 172 5.2 11.3 0.00 0.00 0.00 72 1007.8
20260509161545 57 172 9.6 11.3 0.00 0.00 0.00 68 1007.6
20260509161045 56 180 12.2 13.9 0.00 0.00 0.00 70 1007.8
20260509160541 56 124 7.8 11.3 0.00 0.00 0.00 71 1007.9
20260509160036 55 166 7.8 12.2 0.00 0.00 0.00 72 1007.9
20260509155533 56 151 5.2 12.2 0.00 0.00 0.00 71 1008.1
20260509155029 56 178 7.8 9.6 0.00 0.00 0.00 68 1007.9
20260509154525 55 187 6.1 11.3 0.00 0.00 0.00 69 1008.0
20260509154023 54 197 9.6 13.0 0.00 0.00 0.00 70 1008.1
20260509153520 54 198 5.2 11.3 0.00 0.00 0.00 70 1008.2
20260509153017 54 156 3.5 9.6 0.00 0.00 0.00 71 1008.5
20260509152512 54 164 7.8 11.3 0.00 0.00 0.00 70 1008.4
20260509152009 54 161 7.8 12.2 0.00 0.00 0.00 69 1008.5
20260509151506 53 145 7.8 12.2 0.00 0.00 0.00 70 1008.5
20260509151005 52 172 9.6 12.2 0.00 0.00 0.00 70 1008.5
20260509150501 52 176 11.3 15.6 0.00 0.00 0.00 71 1008.4
20260509145959 53 178 7.8 13.0 0.00 0.00 0.00 69 1008.5
20260509145455 52 160 9.6 13.9 0.00 0.00 0.00 71 1008.5
20260509144950 53 145 8.7 13.9 0.00 0.00 0.00 70 1008.7
20260509144447 54 179 3.5 8.7 0.00 0.00 0.00 72 1008.5
20260509143944 54 182 7.0 9.6 0.00 0.00 0.00 68 1008.5
20260509143441 53 159 6.1 11.3 0.00 0.00 0.00 67 1008.6
20260509142937 53 158 1.7 8.7 0.00 0.00 0.00 70 1008.6
20260509142434 51 155 4.3 11.3 0.00 0.00 0.00 70 1008.8
20260509141929 51 142 4.3 9.6 0.00 0.00 0.00 70 1008.8
20260509141427 50 159 7.0 9.6 0.00 0.00 0.00 69 1009.0
20260509140923 50 174 5.2 13.0 0.00 0.00 0.00 70 1009.0
20260509140420 49 196 7.8 13.9 0.00 0.00 0.00 70 1008.8
20260509135918 49 164 9.6 12.2 0.00 0.00 0.00 71 1009.0
20260509135415 49 176 8.7 12.2 0.00 0.00 0.00 71 1008.9
20260509134913 49 146 6.1 11.3 0.00 0.00 0.00 71 1008.8
20260509134410 49 172 7.0 12.2 0.00 0.00 0.00 72 1009.0
20260509133907 49 172 11.3 13.9 0.00 0.00 0.00 69 1009.0
20260509133403 48 157 9.6 13.9 0.00 0.00 0.00 69 1008.9
20260509132902 48 135 7.0 13.0 0.00 0.00 0.00 71 1009.0
20260509132400 48 161 10.4 13.9 0.00 0.00 0.00 71 1009.0
20260509131857 47 162 7.8 13.0 0.00 0.00 0.00 71 1008.9
20260509131354 47 176 11.3 13.0 0.00 0.00 0.00 70 1008.9
20260509130850 48 151 7.0 9.6 0.00 0.00 0.00 72 1008.9
20260509130345 47 163 8.7 12.2 0.00 0.00 0.00 71 1008.9
20260509125843 47 158 9.6 13.0 0.00 0.00 0.00 70 1009.0
20260509125339 47 154 9.6 12.2 0.00 0.00 0.00 70 1009.0
20260509124835 47 186 9.6 14.8 0.00 0.00 0.00 71 1009.2
20260509124332 48 158 6.1 14.8 0.00 0.00 0.00 70 1009.1
20260509123830 47 153 6.1 13.0 0.00 0.00 0.00 72 1009.2
20260509123327 46 166 9.6 13.9 0.00 0.00 0.00 72 1009.2
20260509122822 46 168 10.4 13.0 0.00 0.00 0.00 71 1009.3
20260509122320 46 159 11.3 14.8 0.00 0.00 0.00 72 1009.3
20260509121817 46 166 9.6 11.3 0.00 0.00 0.00 74 1009.2
20260509121314 46 156 8.7 13.0 0.00 0.00 0.00 74 1009.3
20260509120812 46 157 7.8 11.3 0.00 0.00 0.00 74 1009.1
20260509120310 46 169 8.7 13.0 0.00 0.00 0.00 75 1009.4
20260509115808 46 152 7.0 12.2 0.00 0.00 0.00 76 1009.4
20260509115307 46 149 8.7 11.3 0.00 0.00 0.00 76 1009.6
20260509114803 47 168 7.8 13.0 0.00 0.00 0.00 75 1009.3
20260509114301 46 178 7.8 11.3 0.00 0.00 0.00 76 1009.4
20260509113759 46 189 7.8 9.6 0.00 0.00 0.00 77 1009.5
20260509113256 46 164 7.8 11.3 0.00 0.00 0.00 76 1009.5
20260509112753 45 143 9.6 13.0 0.00 0.00 0.00 77 1009.4
20260509112250 45 152 7.8 11.3 0.00 0.00 0.00 78 1009.6
20260509111747 45 188 8.7 9.6 0.00 0.00 0.00 78 1009.5
20260509111244 44 177 7.8 11.3 0.00 0.00 0.00 78 1009.4
20260509110741 44 156 5.2 9.6 0.00 0.00 0.00 79 1009.4
20260509110238 44 172 10.4 12.2 0.00 0.00 0.00 79 1009.3
20260509105736 43 155 9.6 12.2 0.00 0.00 0.00 79 1009.5
20260509105233 43 133 5.2 12.2 0.00 0.00 0.00 79 1009.4
20260509104730 43 169 7.0 8.7 0.00 0.00 0.00 81 1009.3
20260509104227 42 172 7.8 11.3 0.00 0.00 0.00 81 1009.2
20260509103725 42 140 7.0 9.6 0.00 0.00 0.00 81 1009.2
20260509103222 42 174 8.7 9.6 0.00 0.00 0.00 80 1009.2
20260509102720 42 164 8.7 12.2 0.00 0.00 0.00 81 1009.1
20260509102217 42 177 7.8 9.6 0.00 0.00 0.00 82 1009.1
20260509101713 42 141 7.8 9.6 0.00 0.00 0.00 82 1009.1
20260509101209 42 176 6.1 9.6 0.00 0.00 0.00 81 1009.2
20260509100708 41 200 7.8 9.6 0.00 0.00 0.00 81 1009.1
20260509100204 41 153 7.8 9.6 0.00 0.00 0.00 81 1009.1
20260509095701 41 166 7.8 9.6 0.00 0.00 0.00 82 1008.9
20260509095158 41 170 7.8 11.3 0.00 0.00 0.00 81 1009.1
20260509094655 41 170 9.6 12.2 0.00 0.00 0.00 81 1009.0
20260509094152 41 161 7.0 9.6 0.00 0.00 0.00 81 1009.1
20260509093650 42 168 7.8 9.6 0.00 0.00 0.00 81 1009.2
20260509093147 42 163 7.8 12.2 0.00 0.00 0.00 81 1009.0
20260509092645 42 177 7.0 8.7 0.00 0.00 0.00 81 1009.1
20260509092143 42 144 6.1 9.6 0.00 0.00 0.00 81 1009.1
20260509091641 42 178 7.0 11.3 0.00 0.00 0.00 81 1009.4
20260509091136 42 182 7.8 8.7 0.00 0.00 0.00 81 1009.3
20260509090635 42 183 7.0 7.8 0.00 0.00 0.00 81 1009.1
20260509090132 42 153 7.0 8.7 0.00 0.00 0.00 81 1009.3
20260509085629 41 168 6.1 8.7 0.00 0.00 0.00 82 1009.4
20260509085125 42 169 5.2 7.0 0.00 0.00 0.00 82 1009.6
20260509084622 41 168 5.2 7.8 0.00 0.00 0.00 82 1009.6
20260509084119 41 170 5.2 7.0 0.00 0.00 0.00 82 1009.5
20260509083617 41 168 5.2 7.8 0.00 0.00 0.00 82 1009.6
20260509083113 41 145 6.1 7.8 0.00 0.00 0.00 82 1009.6
20260509082611 42 173 5.2 7.8 0.00 0.00 0.00 82 1009.6
20260509082107 41 166 7.8 9.6 0.00 0.00 0.00 82 1009.4
20260509081604 42 160 6.1 8.7 0.00 0.00 0.00 81 1009.7
20260509081101 42 144 6.1 7.8 0.00 0.00 0.00 80 1009.7
20260509080559 42 167 7.8 9.6 0.00 0.00 0.00 79 1009.6
20260509080057 42 152 6.1 8.7 0.00 0.00 0.00 79 1009.7
20260509075555 42 168 7.0 11.3 0.00 0.00 0.00 79 1009.6
20260509075052 42 147 6.1 7.8 0.00 0.00 0.00 79 1009.5
20260509074549 42 161 7.0 8.7 0.00 0.00 0.00 78 1009.6
20260509074045 42 178 7.0 9.6 0.00 0.00 0.00 78 1009.5
20260509073542 42 154 6.1 7.8 0.00 0.00 0.00 77 1009.7
20260509073038 42 164 7.0 7.8 0.00 0.00 0.00 76 1009.6
20260509072535 43 165 6.1 8.7 0.00 0.00 0.00 75 1009.7
20260509072032 43 161 6.1 7.8 0.00 0.00 0.00 74 1009.7
20260509071528 43 165 5.2 8.7 0.00 0.00 0.00 74 1009.8
20260509071026 43 196 7.8 8.7 0.00 0.00 0.00 73 1009.8
20260509070523 43 187 6.1 8.7 0.00 0.00 0.00 74 1010.0
20260509070020 43 163 6.1 7.8 0.00 0.00 0.00 72 1010.0
20260509065515 43 183 6.1 7.8 0.00 0.00 0.00 73 1010.0
20260509065011 43 177 6.1 7.8 0.00 0.00 0.00 73 1010.0
20260509064509 43 158 5.2 9.6 0.00 0.00 0.00 72 1010.0
20260509064007 43 139 6.1 7.8 0.00 0.00 0.00 72 1010.0
20260509063502 44 164 7.0 7.8 0.00 0.00 0.00 70 1010.3
20260509062959 44 155 6.1 7.8 0.00 0.00 0.00 69 1010.4
20260509062456 44 176 7.0 7.8 0.00 0.00 0.00 68 1010.4
20260509061954 44 159 6.1 8.7 0.00 0.00 0.00 68 1010.3
20260509061451 45 182 6.1 7.8 0.00 0.00 0.00 66 1010.3
20260509060949 45 155 7.0 8.7 0.00 0.00 0.00 66 1010.4
20260509060446 45 170 6.1 9.6 0.00 0.00 0.00 65 1010.4
20260509055941 45 174 6.1 7.8 0.00 0.00 0.00 65 1010.4
20260509055437 45 172 6.1 7.8 0.00 0.00 0.00 65 1010.4
20260509054933 44 160 6.1 8.7 0.00 0.00 0.00 65 1010.6
20260509054430 44 148 5.2 7.0 0.00 0.00 0.00 66 1010.6
20260509053928 44 162 6.1 7.8 0.00 0.00 0.00 67 1010.7
20260509053426 44 168 5.2 7.0 0.00 0.00 0.00 68 1010.8
20260509052923 44 155 5.2 7.8 0.00 0.00 0.00 67 1010.8
20260509052421 44 147 5.2 7.8 0.00 0.00 0.00 67 1011.1
20260509051919 44 170 5.2 8.7 0.00 0.00 0.00 67 1011.0
20260509051416 44 168 5.2 8.7 0.00 0.00 0.00 69 1010.8
20260509050913 43 167 5.2 7.8 0.00 0.00 0.00 69 1010.8
20260509050409 43 172 5.2 8.7 0.00 0.00 0.00 70 1010.8
20260509045906 43 155 7.0 7.8 0.00 0.00 0.00 71 1010.9
20260509045403 42 142 7.8 9.6 0.00 0.00 0.00 72 1010.9